User: anonymous   Login
Location: Prairie State College
(41.5244°N, 87.6382°W)
Time: 16:03:30
(UTC-05:00)
Language:

Cosmos 1943 - Orbit

View from above orbital plane
View from above orbital plane
View from above satellite
View from above satellite

Ground track
Ground track

The orbit data is extracted from the following two-line orbital elements,

1 19119U 88039A   16235.94821251  .00000082  00000-0  66627-4 0  9999
2 19119  71.0043   8.0740 0010747 161.0916 338.2373 14.15067714459902
Epoch (UTC): 22 August 2016 22:45:25
Eccentricity: 0.0010747
inclination: 71.0043°
perigee height: 834 km
apogee height: 850 km
right ascension of ascending node: 8.0740°
argument of perigee: 161.0916°
revolutions per day: 14.15067714
mean anomaly at epoch: 338.2373°
orbit number at epoch: 45990

The dashed part of the orbit path shows where the satellite is in the earth's shadow,  

DLR